Aeroporto :
LOGIN :

Iscrizione | Disclaimer

   EN    FR    IT 

 










Sommario :    VFR   VFR Marginale   IFR   IFR Intensivo   IFR Molto Intensivo
Visibilità : 
Base nubi : 
>= 8 km
>= 3000ft
5 / 8 km
1000 / 3000 ft
1500m / 5 km
500 / 1000 ft
800 / 1500m
200 / 500 ft
< 800m
< 200 ft
Simboli :   Temporali  Nebbia  Neve Forte  Precipitazioni Forti  Vento > 20 kt
SIGMETs :   Varie  Temporali  Ghiacco  Turbolenza  Onda orograficha  Ceneri Vulcaniche






- Altitudine del aeroporto : 238 ft
- Codice IATA : FAB


EGLF - Farnborough

ULTIMO METAR :
  • 022120Z AUTO VRB03KT 9999 FEW031/// 14/12 Q1014

METARs OBSOLETI :
  • 022050Z AUTO 13004KT 9999 FEW031/// 14/12 Q1014
  • 022020Z AUTO 10005KT 9999 NCD 14/12 Q1014
  • 021950Z AUTO 11005KT 9999 NCD 15/12 Q1014
  • 021920Z AUTO 11004KT 9999 NCD 15/12 Q1014
  • 021850Z AUTO 13004KT 090V170 9999 SCT016/// 16/12 Q1014

TAF TAF EGLF
Valido dal 02 a 21 ore il 02 a 23 ore UTC


022007Z 0221/0223 13003KT 9999 FEW030
ATIS : +44 09063 800 400 (*282)



MetMap, La meteo Aeronautica in un colpo d'occhio ! - Copyright ORBIFLY Dicembre 2007 - Disclaimer

ORBIFLY MET'MAP TEAM :

Programmazione e sviluppo : Alexandra Zaïnal
Concezione : Baudouin d'Aumeries
Aiuto per la programmazione : Marc-Olivier Méhu
Supporto tecnico e logistico : Manuel Goepfert
Aiuto per la traduzione : Arnaldo La Scala

Contatto : metmap@orbifly.com




FONTI E CREDITI :

   NOAA